Regional Weather Roundup
Issued by NWS

Home | Current Version | Previous Version | Text Only | Print | Product List | Glossary On
Versions: 1 2 3 4 5 6 7 8 9 10 11 12 13 14 15 16 17 18 19 20 21 22 23 24 25 26 27 28 29 30 31 32 33 34 35 36 37 38 39 40 41 42 43 44 45 46 47 48 49 50
000
ASUS43 KMKX 261500
RWRWI

WISCONSIN REGIONAL WEATHER ROUNDUP
NATIONAL WEATHER SERVICE MILWAUKEE/SULLIVAN WI
1000 AM CDT SUN APR 26 2015

NOTE: "FAIR" INDICATES FEW OR NO CLOUDS BELOW 12,000 FEET WITH NO
SIGNIFICANT WEATHER AND/OR OBSTRUCTIONS TO VISIBILITY.

WIZ001-002-006>008-014>016-023>028-261600-
NORTHWEST WISCONSIN

CITY           SKY/WX    TMP DP  RH WIND       PRES   REMARKS
SUPERIOR ARPT  SUNNY     42  23  46 NE7       30.18S
ASHLAND        SUNNY     47  22  37 NE8       30.18R
HAYWARD        SUNNY     47  21  35 NE7       30.14R
SIREN          SUNNY     45  21  38 E3        30.14S
CUMBERLAND     SUNNY     45  21  39 NE5       30.13R
RICE LAKE      SUNNY     46  21  37 NE3       30.14S
CHETEK         SUNNY     45  21  38 NE5       30.12S
LADYSMITH      SUNNY     48  21  34 E6        30.14R
EAU CLAIRE     NOT AVBL
MENOMONIE      SUNNY     48  21  34 N3        30.13R
NEW RICHMOND   SUNNY     48  23  37 E6        30.13R
OSCEOLA        SUNNY     48  24  38 E7        30.16R
$$

WIZ003>005-009-010-017-018-261600-
NORTH CENTRAL WISCONSIN

CITY           SKY/WX    TMP DP  RH WIND       PRES   REMARKS
MANITOWISH WTR SUNNY     46  19  35 NE6       30.10S
ARBOR VITAE    SUNNY     46  20  34 NE7       30.10R
WOODRUFF       SUNNY     46  20  34 NE7       30.10R
RHINELANDER    SUNNY     47  19  33 VRB6      30.09R
EAGLE RIVER    SUNNY     48  17  29 N12       30.09R
LAND O LAKES   SUNNY     47  18  32 N9        30.10R
PHILLIPS       SUNNY     45  22  39 N7        30.11R
TOMAHAWK       SUNNY     46  21  37 CALM      30.10R
MEDFORD        SUNNY     45  23  41 NE6       30.10R
MERRILL        SUNNY     48  22  37 NE6       30.09S
$$

WIZ029-030-035-036-043>047-261600-
CENTRAL WISCONSIN

CITY           SKY/WX    TMP DP  RH WIND       PRES   REMARKS
WAUSAU         SUNNY     49  23  36 NW8       30.07S
MOSINEE        SUNNY     48  21  34 N10       30.09S
MARSHFIELD     SUNNY     48  23  37 E8        30.09R
STEVENS POINT  SUNNY     46  20  36 CALM      30.09R
WAUPACA        SUNNY     50  22  32 CALM      30.09R
WAUTOMA        NOT AVBL
WISC RAPIDS    SUNNY     49  19  30 VRB3      30.10S
CAMP DOUGLAS   NOT AVBL
$$

WIZ011>013-019>022-031-037>040-048>050-261600-
NORTHEAST WISCONSIN

CITY           SKY/WX    TMP DP  RH WIND       PRES   REMARKS
ANTIGO         SUNNY     45  25  44 N7        30.08R
SHAWANO        SUNNY     50  22  33 NE5       30.08S
OCONTO         SUNNY     47  26  44 NE5       30.07R
STURGEON BAY   SUNNY     43  27  52 N9        30.09R
GREEN BAY      SUNNY     50  25  37 NE7       30.07R
MANITOWOC      NOT AVBL
APPLETON       SUNNY     46  23  39 N6        30.07R
CLINTONVILLE   SUNNY     50  21  32 NE5       30.07S
OSHKOSH        SUNNY     48  25  40 NW8       30.07R
$$

WIZ032>034-041-042-053>061-261600-
SOUTHWEST WISCONSIN

CITY           SKY/WX    TMP DP  RH WIND       PRES   REMARKS
LA CROSSE      SUNNY     49  26  41 VRB3      30.11R
SPARTA         SUNNY     47  22  37 E6        30.10R
VIROQUA        SUNNY     47  26  44 E6        30.08R
BOSCOBEL       SUNNY     49  26  41 NE7       30.09R
PRAIRIE DU CHI SUNNY     46  28  49 CALM      30.08R
PLATTEVILLE    SUNNY     46  29  50 E12       30.06R
$$

WIZ056-057-062-063-064-067-068-261600-
SOUTH CENTRAL WISCONSIN

CITY           SKY/WX    TMP DP  RH WIND       PRES   REMARKS
REEDSBURG      SUNNY     45  26  46 CALM      30.08S
BARABOO/DELLS  SUNNY     44  25  47 NE5       30.08R
LONE ROCK      NOT AVBL
MINERAL POINT  SUNNY     46  28  49 NE9       30.06R
MADISON        MOSUNNY   48  29  47 N5        30.07R
MIDDLETON      SUNNY     46  28  49 N6        30.08R
WATERTOWN      SUNNY     46  29  50 CALM      30.05S
MONROE         SUNNY     45  32  61 NE7       30.04S
JANESVILLE     SUNNY     50  27  40 E8        30.04S
$$

WIZ051-052-058>065-066-070>072-261600-
SOUTHEAST WISCONSIN

CITY           SKY/WX    TMP DP  RH WIND       PRES   REMARKS
MILWAUKEE      SUNNY     43  27  53 NE13      30.05R
WAUKESHA       SUNNY     46  27  46 NE6       30.04S
MILWAUKEE/TIMM SUNNY     48  25  40 NE5       30.05R
RACINE         SUNNY     44  30  57 N10G21    30.06R
BURLINGTON     SUNNY     47  27  44 NE8       30.03R
KENOSHA        SUNNY     48  33  56 N10       30.04R
FOND DU LAC    SUNNY     48  28  46 N6        30.06S
SHEBOYGAN      SUNNY     48  28  46 N6        30.05R
WEST BEND      SUNNY     48  25  40 NW5       30.03F
JUNEAU         SUNNY     45  29  53 N5        30.07R
$$

LSZ147-162-261600-
LAKE SUPERIOR

STATION/POSITION TIME  TEMP    WIND        PRES    WAVE
                       AIR SEA DIR/SP/G            HT/PER
                 (UTC) (F)     (DEG/KT/KT) (MB)    (FT/S)
W MID LAKE BUOY  1350   36 34   30/ 10/ 14 1022.8R   1/ 3
DEVILS ISLAND    1400   37      60/  7/  8 1022.6R
PORT WING        1400   35     310/  4/  4 1022.0
SAXON HARBOR     1400   37        CALM     1021.0
$$

LMZ867-665-643>646-261600-
LAKE MICHIGAN

STATION/POSITION TIME  TEMP    WIND        PRES    WAVE
                       AIR SEA DIR/SP/G            HT/PER
                 (UTC) (F)     (DEG/KT/KT) (MB)    (FT/S)
CHAMBERS ISLAND  1400   40      10/  5/  6 1018.3R
NORTHPORT PIER   1400   38     310/  8/ 11 1017.9R
SISTER BAY       1347   42     340/ 15/ 17   N/A
KEWAUNEE LAKESHO 1400   44      30/  6/  9 1016.7R
SHEBOYGAN LAKESH 1400   40     360/ 12/ 14 1018.2R
PORT WASHINGTON  1440   43      50/ 11/ 12 1018.3R
MILWAUKEE LAKESH 1400   40      10/ 14/ 17   N/A
KENOSHA   LAKESH 1400   40      20/ 17/ 19 1016.9R
$$

TC  - TEMPERATURE IN CELSIUS
VSB - VISIBILITY IN STATUTE MILES
WCI - WIND CHILL INDEX
HX  - HEAT INDEX




USA.gov is the U.S. government's official web portal to all federal, state and local government web resources and services.